T 2006 Nov. 24.2995 TT MPC q 1.245214 (2000.0) P Q z +0.018476 Peri. 65.1007 -0.6149261 -0.7882925 Node 297.1371 -0.7319370 +0.5604107 e 0.976993 Incl. 178.6178 -0.2934862 +0.2540370 From 64 observations 2007 Jan. 29-Mar. 16.
m1 = 16.7 + 5 logΔ + 10.0 log r